Starlink 35382

operational
NORAD ID: 66019 Int'l Des: 2025-232 Owner: SPXS Country: US Constellation: starlink
LEOCIRCULAR

Über Starlink 35382

Beschreibung wird geladen...

Live-Position

3D-Globus wird geladen...

Nächste Überflüge

Höhenverlauf

Altitude vs Time

uPlot chart will show altitude changes over time

Zweizeiliger Elementsatz

1 66019C 25232Q 25290.81159722 -.00325430 00000+0 -46788-3 0 2907
2 66019 53.1577 56.8392 0003567 294.7984 353.6028 16.04989612 13
Epoch: 17. Okt. 2025 • Age: 63 hours

Aktueller Status

Höhe 264.5 km
Geschwindigkeit 7.75 km/s
Subsatellitenpunkt 23.38°N, 169.01°E
Startdatum 16. Okt. 2025
Alter 3 days
Typ internet

Technische Details

Klassifizierung Payload
Masse 575.00 kg
Trockenmasse 530.00 kg
Gesamtmasse 575.00 kg
Länge 0.30 m
Durchmesser 4.10 m
Spannweite 29.00 m
Form Box + pan
Hersteller SPXS
Bus-Typ Starlink V2MO
Phasenstatus In Orbit
Besitzer/Staat SPXS/US

Große Konstellationen

Loading constellations...